Change the Weather History Date:

Friday, February 1, 2013

  Actual Average Record
Temperature  
Mean Temperature 24 °F -  
Max Temperature 33 °F 44 °F 75 °F (2002)
Min Temperature 16 °F 25 °F 5 °F (2004)
Degree Days  
Heating Degree Days 40    
Moisture  
Dew Point 7 °F    
Average Humidity 47    
Maximum Humidity 84    
Minimum Humidity 29    
Precipitation  
Precipitation 0.00 in - - ()
Sea Level Pressure  
Sea Level Pressure 30.10 in    
Wind  
Wind Speed 8 mph (WNW)    
Max Wind Speed 25 mph    
Max Gust Speed 33 mph    
Visibility 10 miles    
Events Snow    
Averages and records for this station are not official NWS values.
T = Trace of Precipitation, MM = Missing Value Source: NWS Daily Summary

Daily Weather History Graph

Daily Weather History Graph

Search for Another Location

Airport or City:

Trip Planner

Search our weather history database for the weather conditions in past years. The results will help you decide how hot, cold, wet, or windy it might be!

Date:

Astronomy

Feb. 01, 2013 Rise Set
Actual Time 7:20 AM EST 5:38 PM EST
Civil Twilight 6:52 AM EST 6:06 PM EST
Nautical Twilight 6:20 AM EST 6:38 PM EST
Astronomical Twilight 5:49 AM EST 7:09 PM EST
Moon 11:37 PM EST (2/1) 9:58 AM EST (2/1)
Length of Visible Light 11h 13m
Length of Day
10h 18m
Waning Gibbous, 70% of the Moon is Illuminated
Feb 1
Waning Gibbous
Feb 3
Last Quarter
Feb 10
New
Feb 17
First Quarter
Feb 25
Full

Hourly Weather History & Observations

Time (EST) Temp. Windchill Dew Point Humidity Pressure Visibility Wind Dir Wind Speed Gust Speed Precip Events Conditions
12:15 AM 30.2 °F 25.4 °F 18.5 °F 62% 29.85 in 10.0 mi South 4.6 mph - N/A   Overcast
12:35 AM 31.1 °F 27.7 °F 19.0 °F 61% 29.85 in 10.0 mi South 3.5 mph - N/A   Overcast
12:55 AM 32.0 °F 27.5 °F 19.4 °F 60% 29.85 in 10.0 mi SSW 4.6 mph - N/A   Overcast
1:15 AM 32.2 °F 28.9 °F 20.1 °F 61% 29.84 in 10.0 mi South 3.5 mph - N/A   Overcast
1:35 AM 32.9 °F 27.5 °F 20.1 °F 59% 29.83 in 10.0 mi South 5.8 mph - N/A   Overcast
1:55 AM 33.6 °F 25.6 °F 20.5 °F 59% 29.82 in 10.0 mi SSW 10.4 mph - N/A   Overcast
2:15 AM 33.8 °F 26.4 °F 22.1 °F 62% 29.81 in 10.0 mi SW 9.2 mph - N/A   Overcast
2:35 AM 33.8 °F - 23.2 °F 65% 29.80 in 10.0 mi Calm Calm - N/A   Overcast
2:55 AM 33.8 °F 28.6 °F 24.4 °F 69% 29.79 in 10.0 mi SW 5.8 mph - N/A Snow Light Snow
3:15 AM 32.7 °F - 25.0 °F 73% 29.77 in 10.0 mi Calm Calm - N/A   Overcast
3:35 AM 32.9 °F - 25.3 °F 74% 29.77 in 10.0 mi Calm Calm - N/A   Overcast
3:55 AM 32.9 °F - 25.7 °F 75% 29.77 in 10.0 mi Calm Calm - N/A   Overcast
4:15 AM 32.9 °F 24.1 °F 26.4 °F 77% 29.79 in 10.0 mi NW 11.5 mph - N/A   Overcast
4:35 AM 31.8 °F 25.4 °F 27.5 °F 84% 29.80 in 1.8 mi WNW 6.9 mph - N/A Snow Light Snow
4:55 AM 32.0 °F 23.6 °F 26.6 °F 80% 29.82 in 10.0 mi WNW 10.4 mph - N/A   Overcast
5:15 AM 30.6 °F 16.7 °F 20.7 °F 67% 29.84 in 4.0 mi NW 25.3 mph 33.4 mph N/A Snow Light Snow
5:35 AM 28.9 °F 17.3 °F 12.6 °F 50% 29.86 in 10.0 mi NW 16.1 mph 31.1 mph N/A   Scattered Clouds
5:55 AM 28.0 °F 21.7 °F 10.6 °F 48% 29.90 in 10.0 mi West 5.8 mph - N/A   Scattered Clouds
6:15 AM 27.3 °F 16.6 °F 10.0 °F 48% 29.93 in 10.0 mi West 12.7 mph 17.3 mph N/A   Clear
6:35 AM 26.6 °F 17.5 °F 7.5 °F 45% 29.95 in 10.0 mi WNW 9.2 mph 17.3 mph N/A   Clear
6:55 AM 25.7 °F 13.5 °F 6.1 °F 43% 29.97 in 10.0 mi West 15.0 mph 21.9 mph N/A   Scattered Clouds
7:15 AM 24.4 °F 13.5 °F 9.9 °F 54% 30.00 in 10.0 mi West 11.5 mph 20.7 mph N/A   Scattered Clouds
7:35 AM 23.7 °F 13.3 °F 8.2 °F 52% 30.00 in 10.0 mi West 10.4 mph 19.6 mph N/A   Scattered Clouds
7:55 AM 23.9 °F 13.5 °F 8.1 °F 51% 30.02 in 10.0 mi West 10.4 mph 17.3 mph N/A   Scattered Clouds
8:15 AM 23.9 °F 9.9 °F 3.2 °F 41% 30.04 in 10.0 mi West 18.4 mph 24.2 mph N/A   Scattered Clouds
8:35 AM 23.9 °F 11.2 °F 2.5 °F 40% 30.06 in 10.0 mi WNW 15.0 mph 19.6 mph N/A   Clear
8:55 AM 23.5 °F 9.4 °F 1.2 °F 38% 30.08 in 10.0 mi WNW 18.4 mph 21.9 mph N/A   Scattered Clouds
9:15 AM 23.0 °F 11.1 °F 1.4 °F 39% 30.10 in 10.0 mi West 12.7 mph 20.7 mph N/A   Scattered Clouds
9:35 AM 22.8 °F 9.4 °F 0.7 °F 38% 30.11 in 10.0 mi WNW 16.1 mph 23.0 mph N/A   Mostly Cloudy
9:55 AM 23.2 °F 10.8 °F 2.7 °F 41% 30.13 in 10.0 mi West 13.8 mph 28.8 mph N/A   Overcast
10:15 AM 22.8 °F 11.5 °F 0.5 °F 38% 30.14 in 10.0 mi West 11.5 mph 20.7 mph N/A   Mostly Cloudy
10:35 AM 23.7 °F 12.1 °F 0.3 °F 36% 30.15 in 10.0 mi WNW 12.7 mph 21.9 mph N/A   Mostly Cloudy
10:55 AM 24.1 °F 13.1 °F 0.1 °F 35% 30.16 in 10.0 mi NW 11.5 mph 18.4 mph N/A   Scattered Clouds
11:15 AM 24.8 °F 12.4 °F 0.3 °F 35% 30.16 in 10.0 mi NW 15.0 mph 20.7 mph N/A   Mostly Cloudy
11:35 AM 25.2 °F 14.4 °F -0.2 °F 33% 30.17 in 10.0 mi WNW 11.5 mph 23.0 mph N/A   Overcast
11:55 AM 25.9 °F 14.8 °F 0.3 °F 33% 30.17 in 10.0 mi NW 12.7 mph - N/A   Overcast
12:15 PM 26.6 °F 14.3 °F 0.3 °F 32% 30.16 in 10.0 mi WNW 16.1 mph 23.0 mph N/A   Overcast
12:55 PM 27.3 °F 15.6 °F 0.1 °F 31% 30.16 in 10.0 mi West 15.0 mph 20.7 mph N/A   Scattered Clouds
1:15 PM 27.1 °F 14.9 °F -0.8 °F 30% 30.16 in 10.0 mi West 16.1 mph 23.0 mph N/A   Clear
1:35 PM 27.9 °F 15.9 °F -0.4 °F 30% 30.16 in 10.0 mi NW 16.1 mph 21.9 mph N/A   Clear
1:55 PM 28.2 °F 17.2 °F -0.0 °F 30% 30.16 in 10.0 mi NW 13.8 mph 18.4 mph N/A   Scattered Clouds
2:15 PM 28.0 °F 16.5 °F -0.2 °F 30% 30.16 in 10.0 mi NW 15.0 mph 21.9 mph N/A   Scattered Clouds
2:35 PM 28.4 °F 17.0 °F -0.0 °F 29% 30.17 in 10.0 mi NW 15.0 mph - N/A   Mostly Cloudy
2:55 PM 28.8 °F 19.5 °F 1.2 °F 31% 30.18 in 10.0 mi NW 10.4 mph 18.4 mph N/A   Scattered Clouds
3:15 PM 26.4 °F 16.6 °F -1.1 °F 30% 30.19 in 10.0 mi West 10.4 mph 16.1 mph N/A   Scattered Clouds
3:35 PM 27.9 °F 18.4 °F -0.2 °F 30% 30.20 in 10.0 mi West 10.4 mph - N/A   Mostly Cloudy
3:55 PM 27.5 °F 17.4 °F -0.6 °F 30% 30.21 in 10.0 mi NNW 11.5 mph - N/A   Scattered Clouds
4:15 PM 27.0 °F 16.7 °F -0.8 °F 30% 30.21 in 10.0 mi NNW 11.5 mph 16.1 mph N/A   Clear
4:35 PM 25.9 °F 16.0 °F -0.9 °F 31% 30.22 in 10.0 mi NW 10.4 mph 16.1 mph N/A   Clear
4:55 PM 25.5 °F 16.2 °F -0.9 °F 32% 30.23 in 10.0 mi NNW 9.2 mph - N/A   Clear
5:15 PM 24.8 °F 14.6 °F -0.0 °F 34% 30.23 in 10.0 mi NW 10.4 mph - N/A   Clear
5:35 PM 23.7 °F 12.6 °F 0.3 °F 36% 30.23 in 10.0 mi NW 11.5 mph - N/A   Clear
5:55 PM 22.8 °F 9.9 °F 0.5 °F 38% 30.23 in 10.0 mi NW 15.0 mph 19.6 mph N/A   Clear
6:15 PM 22.1 °F 10.6 °F 1.0 °F 40% 30.24 in 10.0 mi NW 11.5 mph 18.4 mph N/A   Clear
6:35 PM 21.9 °F - 0.5 °F 39% 30.26 in 10.0 mi Calm Calm - N/A   Clear
6:55 PM 21.2 °F - 0.3 °F 40% 30.27 in 10.0 mi Calm Calm - N/A   Clear
7:15 PM 20.3 °F 15.4 °F 1.0 °F 43% 30.28 in 10.0 mi NW 3.5 mph - N/A   Clear
7:35 PM 19.9 °F - 1.9 °F 46% 30.29 in 10.0 mi Calm Calm - N/A   Clear
7:55 PM 19.8 °F - 0.7 °F 43% 30.29 in 10.0 mi Calm Calm - N/A   Clear
8:15 PM 19.0 °F 13.9 °F 2.1 °F 48% 30.30 in 10.0 mi West 3.5 mph - N/A   Clear
8:35 PM 18.7 °F 13.5 °F 2.5 °F 49% 30.29 in 10.0 mi WNW 3.5 mph - N/A   Clear
8:55 PM 18.5 °F - 3.7 °F 53% 30.30 in 10.0 mi Calm Calm - N/A   Clear
9:15 PM 18.7 °F - 2.8 °F 50% 30.31 in 10.0 mi Calm Calm - N/A   Clear
9:35 PM 17.6 °F - 3.4 °F 54% 30.32 in 10.0 mi Calm Calm - N/A   Clear
9:55 PM 18.0 °F 12.7 °F 2.8 °F 52% 30.32 in 10.0 mi West 3.5 mph - N/A   Clear
10:15 PM 17.8 °F - 3.2 °F 53% 30.33 in 10.0 mi Calm Calm - N/A   Clear
10:35 PM 17.2 °F 11.9 °F 3.7 °F 56% 30.33 in 10.0 mi SW 3.5 mph - N/A   Clear
10:55 PM 16.7 °F 11.2 °F 4.3 °F 58% 30.33 in 10.0 mi WSW 3.5 mph - N/A   Clear
11:15 PM 16.7 °F - 4.6 °F 59% 30.33 in 10.0 mi Calm Calm - N/A   Clear
11:35 PM 16.3 °F - 5.5 °F 63% 30.33 in 10.0 mi Calm Calm - N/A   Clear
11:55 PM 16.7 °F - 4.5 °F 59% 30.34 in 10.0 mi Calm Calm - N/A   Clear